Regional Weather Roundup
Issued by NWS

Home | Current Version | Previous Version | Text Only | Print | Product List | Glossary On
Versions: 1 2 3 4 5 6 7 8 9 10 11 12 13 14 15 16 17 18 19 20 21 22 23 24 25 26 27 28 29 30 31 32 33 34 35 36 37 38 39 40 41 42 43 44 45 46 47 48 49 50
000
ASUS42 KFFC 240410
RWRGA
WEATHER ROUNDUP FOR GEORGIA
NATIONAL WEATHER SERVICE PEACHTREE CITY GA
1100 PM EST THU NOV 23 2017

NOTE: "FAIR" INDICATES FEW OR NO CLOUDS BELOW 12,000 FEET WITH NO
SIGNIFICANT WEATHER AND/OR OBSTRUCTIONS TO VISIBILITY.

* = USE WITH CAUTION. THE STATIONS MARKED WITH AN ASTERISK MAY NOT
REPORT WEATHER SUCH AS PRECIPITATION, FOG, OR THUNDER AND ARE NOT
QUALITY CONTROLLED BY NWS.

THE REMARK "TC" DENOTES TEMPERATURE READING IN DEGREES CELSIUS.

GAZ001>058-240500-
NORTH GEORGIA

CITY           SKY/WX    TMP DP  RH WIND       PRES   REMARKS
ATLANTA        PTCLDY    48  40  73 CALM      30.02S
ATHENS         CLEAR     38  36  92 E5        30.04R WCI  34
CHAMBLEE       CLEAR     40  37  89 CALM      30.02S
PEACHTREE CITY CLEAR     39  38  96 CALM      30.03S
ROME           CLEAR     39  36  89 CALM      30.03S
WEST ATLANTA   CLEAR     40  40 100 CALM      30.02S
GAINESVILLE    CLEAR     42  34  73 CALM      30.04S
CARTERSVILLE   CLEAR     36  36 100 CALM      30.04S


CITY           SKY/WX    TMP DP  RH WIND       PRES   REMARKS
DALTON*        CLEAR     36  36 100 CALM      30.05S
LAWRENCEVILLE* CLEAR     37  36  96 CALM        N/A
MARIETTA       CLEAR     42  38  86 CALM      30.02S
KENNESAW*      CLEAR     43  39  86 CALM      30.04R
CANTON*        CLEAR     41  39  93 CALM      30.04S
$$

GAZ059>098-102>109-240500-
CENTRAL GEORGIA

CITY           SKY/WX    TMP DP  RH WIND       PRES   REMARKS
AUGUSTA-BUSH   CLEAR     38  37  97 CALM      30.05S
AUGUSTA-DANIEL CLEAR     47  39  74 E5        30.05S
COLUMBUS       CLEAR     52  44  74 E5        30.01S
MACON          CLEAR     46  43  89 E3        30.02S
ROBINS AFB     CLEAR     47  44  91 CALM      30.02R


CITY           SKY/WX    TMP DP  RH WIND       PRES   REMARKS
LAGRANGE*      CLEAR     44  43  98 CALM      30.02S
SYLVANIA*      CLEAR     44  42  91 CALM      30.04F
MILLEDGEVILLE* MOCLDY    52  43  71 E6        30.04S
$$

GAZ099>101-110>166-240500-
SOUTH GEORGIA

CITY           SKY/WX    TMP DP  RH WIND       PRES   REMARKS
SAVANNAH       CLOUDY    48  45  89 N9        30.01S
VALDOSTA       CLOUDY    53  52  96 N9        29.98R
ALMA           CLOUDY    53  49  86 N6        30.00R
ST SIMONS      CLOUDY    52  51  97 N12G21    29.96S
FT STEWART     CLOUDY    48  44  85 N7        29.99S
ALBANY         CLOUDY    58  50  75 NE7       29.98S
HUNTER AFB     CLOUDY    48  45  89 NW3       29.97F
MOODY AFB      CLOUDY    54  52  94 N7        29.97S
BRUNSWICK      CLOUDY    52  48  87 N6        29.98S


CITY           SKY/WX    TMP DP  RH WIND       PRES   REMARKS
BAINBRIDGE*    CLEAR     55  55 100 E7        29.99S
MOULTRIE*      CLOUDY    57  52  82 NE5       30.00S
VIDALIA*       CLOUDY    52  46  82 NE6       30.02F
WAYCROSS*      CLOUDY    51  49  90 NE6       29.99S
DOUGLAS*       CLOUDY    52  48  87 NE9       30.02S
$$



USA.gov is the U.S. government's official web portal to all federal, state and local government web resources and services.